#timestamp,LO_Frequency,Hit,StdDev 
1697346015.5,286047002.2,N
1697346035.4,286046999.9,N
1697346055.2,286047002.7,Y
1697346075.1,286047000.7,P
1697346076.0,286047000.7,N
1697346095.8,286047001.1,N
1697346115.6,286047000.1,N
1697346135.5,286047000.1,N
1697346155.3,286047000.2,N
1697346175.2,286046998.5,N
1697346195.9,286047000.4,N
1697346215.7,286047000.4,N
1697346235.6,286046999.9,N
1697346255.4,286047000.9,N
1697346275.3,286047000.9,N
1697346295.1,286046998.6,N
1697346296.0,286046998.6,N
1697346315.8,286047000.9,N
1697346335.7,286046998.3,N
1697346355.5,286046998.2,N
1697346375.3,286046998.6,N
1697346395.2,286046997.2,N
1697346415.0,286046999.5,N
1697346415.9,286046999.5,N
1697346435.8,286046996.7,N
1697346455.6,286046997.0,N
1697346475.4,286046997.0,N
1697346495.3,286046999.2,N
1697346515.1,286046998.9,N
1697346535.8,286046998.8,N
1697346555.7,286046998.1,N
1697346575.5,286046998.1,N
1697346595.4,286047001.2,N
1697346615.2,286047001.2,N
1697346635.0,286047000.7,N
1697346635.9,286047000.7,N
1697346655.8,286047001.2,N
1697346675.6,286046998.1,N
1697346695.5,286046998.7,N
1697346715.3,286046999.0,N
1697346735.1,286046998.7,N
1697346755.9,286046998.6,N
1697346775.7,286047000.9,N
1697346795.6,286047000.8,N
1697346815.4,286046998.6,N
1697346835.2,286046998.5,N
1697346855.1,286046999.1,N
1697346856.0,286046999.1,N
1697346875.8,286046999.3,N
1697346895.7,286046998.8,N
1697346915.5,286046998.3,N
1697346935.3,286046998.5,N
1697346955.2,286046999.3,N
1697346975.0,286047001.2,N
1697346975.9,286047001.2,N
1697346995.8,286046998.4,N
1697347015.6,286047001.2,N
1697347035.4,286047000.5,N
1697347055.3,286047000.4,N
1697347075.1,286047000.7,N
1697347095.8,286046998.5,N
1697347115.7,286047001.1,N
1697347135.5,286047000.0,N
1697347155.4,286047002.8,N
1697347175.2,286047000.9,N
1697347195.0,286046998.3,N
1697347195.9,286046998.3,N
1697347215.8,286046998.9,N
1697347235.6,286047001.1,N
1697347255.4,286047000.4,N
1697347275.3,286047000.6,N
1697347295.1,286047000.9,N
1697347315.9,286046998.2,N
1697347335.7,286047001.1,N
1697347355.5,286047000.5,N
1697347375.4,286046999.7,N
1697347395.2,286047000.2,N
1697347415.0,286047000.3,N
1697347415.9,286047000.3,N
1697347435.8,286047000.4,N
1697347455.6,286047000.2,N
1697347475.5,286046999.7,N
1697347495.3,286047002.8,N
1697347515.1,286047000.0,N
1697347535.3,286047002.8,N
1697347555.1,286047002.7,N
1697347575.9,286047002.3,N
1697347595.7,286046999.7,N
1697347615.5,286047002.8,N
1697347635.4,286047000.3,N
1697347655.2,286047002.7,N
1697347675.0,286047002.4,N
1697347675.9,286047002.4,N
1697347695.8,286047000.5,N
1697347715.6,286047002.8,N
1697347735.5,286046999.9,N
1697347755.3,286047000.4,N
1697347775.1,286047000.3,N
1697347795.9,286046998.2,N
1697347815.7,286046998.6,N
1697347835.5,286046998.1,N
1697347855.4,286047001.1,N
1697347905.3,286047000.1,E
1697347915.2,286047002.3,N
1697347935.0,286047000.0,P
1697347935.9,286047000.0,N
1697347955.8,286047000.0,N
1697347975.6,286047000.9,N
1697347995.4,286046999.7,N
1697348015.3,286047000.1,N
1697348035.1,286047002.1,N
1697348055.8,286047002.2,N
1697348075.7,286047000.3,N
1697348095.5,286047001.2,N
1697348115.4,286047000.4,N
1697348135.2,286047000.7,N
1697348155.1,286047001.0,N
1697348156.0,286047001.0,N
1697348175.8,286047000.5,N
1697348195.6,286047000.7,N
1697348215.5,286046999.9,N
1697348235.3,286046999.8,N
1697348255.1,286047000.2,N
1697348275.9,286047000.5,N
1697348295.7,286047001.1,N
1697348315.6,286046998.2,N
1697348335.4,286046999.9,N
1697348355.3,286047002.7,Y
1697348375.1,286047000.9,P
1697348376.0,286047000.9,P
1697348395.8,286046999.7,N
1697348415.7,286046998.3,Y
1697348435.5,286046999.3,P
1697348455.3,286046998.6,N
1697348475.2,286047000.8,N
1697348495.0,286046998.3,N
1697348495.9,286046998.3,N
1697348515.8,286046998.5,N
1697348535.6,286047000.9,N
1697348555.4,286047000.2,N
1697348575.3,286047000.5,N
1697348595.1,286047002.3,N
1697348615.6,286047001.5,N
1697348635.5,286047002.0,N
1697348655.3,286047001.6,N
1697348675.1,286047001.8,N
1697348695.9,286047002.1,N
1697348715.7,286046999.9,N
1697348735.6,286047000.1,N
1697348755.4,286047002.3,N
1697348775.2,286046999.9,N
1697348795.1,286047000.3,N
1697348796.0,286047000.3,N
1697348815.8,286047000.9,N
1697348835.6,286047001.2,N
1697348855.5,286046998.5,N
1697348875.3,286047001.0,N
1697348895.1,286046998.5,N
1697348915.9,286046998.6,N
1697348935.7,286047001.2,N
1697348955.6,286047000.7,N
1697348975.4,286046998.7,N
1697348995.2,286046999.2,N
1697349015.1,286046999.6,N
1697349016.0,286046999.6,N
1697349035.8,286046996.5,N
1697349055.7,286046997.8,N
1697349075.5,286046997.6,N
1697349095.3,286046995.5,Y
1697349115.2,286046995.2,P
1697349135.0,286046995.0,N
1697349135.9,286046995.0,N
1697349155.8,286046996.1,N
1697349175.6,286046993.7,Y
1697349195.5,286046996.6,P
1697349215.3,286046996.8,P
1697349235.1,286046996.7,P
1697349255.9,286046997.7,Y
1697349275.7,286047002.7,P
1697349295.5,286047002.5,N
1697349315.4,286047000.4,N
1697349335.2,286047001.1,N
1697349355.1,286046998.7,N
1697349356.0,286046998.7,N
1697349375.8,286046996.5,N
1697349395.6,286046997.0,N
1697349415.5,286046997.5,N
1697349435.3,286046995.0,N
1697349455.2,286046995.0,N
1697349475.9,286046995.4,N
1697349495.7,286046997.3,N
1697349515.6,286046995.3,N
1697349535.4,286046997.6,N
1697349555.2,286046997.2,N
1697349575.1,286046996.6,N
1697349576.0,286046996.6,N
1697349595.8,286046997.0,N
